Weather in Svesa

Ukraine / Sumi District     51°57′12″N   33°56′08″E
temp.,
°C
wind,
m/s
gust,
m/s
humid.,
%
clouds,
%
prec.,
mm/h
press.,
hPa
HPBL,
m
11 april, sun
sun1100:00+4ssw33580 0.0 102730
03:00+3sw22620 0.0 102819
06:00+3ssw22640 0.0 102910
09:00+8s11510 0.0 1030208
12:00+12ese11400 0.0 10301018
15:00+13ene23360 0.0 10291368
18:00+13ene35433 0.0 1029613
21:00+8ene356016 0.0 102986
12 april, mon
mon1200:00+6ene3564100 0.0 102984
03:00+5ne3770100 0.0 1029122
06:00+4ne41074100 0.0 1027190
09:00+7ene5966100 0.0 1026383
12:00+9e3574100 0.0 1025511
15:00+13ene3367100 0.0 1023617
18:00+13ene3675100 0.0 1022247
21:00+11ne4985100 0.0 1021179
13 april, tue
tue1300:00+11e4884100 0.0 1020155
03:00+12se41273100 0.0 1020316
06:00+10se41079100 0.0 1019282
09:00+12sse5779100 0.0 1019364
12:00+13sse5678100 0.0 1020612
15:00+10sse4793100 1.9 1020361
18:00+11sse3686100 1.8 1019288
21:00+9s3490100 1.8 102087
14 april, wed
wed1400:00+8s33925 0.0 102035
03:00+7s22917 0.0 101921
06:00+8s228690 0.0 101921
09:00+10s1274100 0.0 1018101
12:00+12se3469100 0.0 1018414
15:00+14se446335 0.1 10181110
18:00+14sse236496 0.2 1017181
21:00+10ese337655 0.2 101838
15 april, thu
thu1500:00+10e3478100 0.0 101766
03:00+10ene3480100 0.0 101779
06:00+10ene3683100 0.0 1017123
09:00+11ene3681100 0.0 1017231
12:00+15ne5663100 0.3 1015716
15:00+16ne5659100 1.9 10141071
18:00+13ne4877100 1.1 1013290
21:00+11ne5887100 1.6 1013363